Bennett, CO

8:25 PM MST on December 04, 2016 (GMT -0700)
Front Range

Weather History for KFTG - February, 2013

Change the Weather History Date:

Sunday, February 24, 2013

  Actual Average (KDEN) Record (KDEN)
Temperature  
Mean Temperature 26 °F 34 °F  
Max Temperature 32 °F 48 °F 71 °F (1995)
Min Temperature 17 °F 21 °F -8 °F (1874)
Degree Days  
Heating Degree Days 40 31  
Month to date heating degree days 759  
Since 1 July heating degree days 4290  
Cooling Degree Days 0 0  
Month to date cooling degree days 0  
Year to date cooling degree days 0  
Moisture  
Dew Point 28 °F    
Average Humidity 96    
Maximum Humidity 100    
Minimum Humidity 87    
Precipitation  
Precipitation 0.00 in 0.01 in 0.54 in (1959)
Month to date precipitation 0.29  
Year to date precipitation 0.70  
Snow  
Snow 0.00 in - - ()
Month to date snowfall  
Since 1 July snowfall  
Snow Depth -    
Sea Level Pressure  
Sea Level Pressure 29.83 in    
Wind  
Wind Speed 16 mph (North)    
Max Wind Speed 30 mph    
Max Gust Speed 37 mph    
Visibility 5 miles    
Events Snow    
T = Trace of Precipitation, MM = Missing Value Source: NWS Daily Summary

Daily Weather History Graph

Daily Weather History Graph

Search for Another Location

Airport or City:

Trip Planner

Search our weather history database for the weather conditions in past years. The results will help you decide how hot, cold, wet, or windy it might be!

Date:

Astronomy

Feb. 24, 2013 Rise Set
Actual Time 6:38 AM MST 5:45 PM MST
Civil Twilight 6:10 AM MST 6:12 PM MST
Nautical Twilight 5:39 AM MST 6:43 PM MST
Astronomical Twilight 5:08 AM MST 7:14 PM MST
Moon 4:58 PM MST (2/24) 5:36 AM MST (2/24)
Length of Visible Light 12h 01m
Length of Day
11h 06m
Waxing Gibbous, 99% of the Moon is Illuminated
Feb 24
Waxing Gibbous
Feb 25
Full
Mar 4
Last Quarter
Mar 11
New
Mar 19
First Quarter

Hourly Weather History & Observations

Time (MST) Temp. Windchill Dew Point Humidity Pressure Visibility Wind Dir Wind Speed Gust Speed Precip Events Conditions
12:04 AM 32.0 °F 21.2 °F 28.4 °F 87% 29.66 in 10.0 mi NNW 16.1 mph - N/A   Scattered Clouds
12:29 AM 32.0 °F 19.5 °F 30.2 °F 93% 29.67 in 10.0 mi North 21.9 mph - N/A   Overcast
12:49 AM 32.0 °F 19.8 °F 30.2 °F 93% 29.68 in 10.0 mi NNW 20.7 mph - N/A   Overcast
1:09 AM 30.2 °F 17.8 °F 30.2 °F 100% 29.68 in 7.0 mi NNW 19.6 mph - N/A   Overcast
1:27 AM 30.2 °F 18.9 °F 30.2 °F 100% 29.69 in 10.0 mi NNW 16.1 mph - N/A   Overcast
1:49 AM 30.2 °F 19.3 °F 30.2 °F 100% 29.68 in 10.0 mi NNW 15.0 mph - N/A   Overcast
2:09 AM 30.2 °F 20.2 °F 30.2 °F 100% 29.68 in 10.0 mi North 12.7 mph - N/A   Overcast
2:29 AM 30.2 °F 21.3 °F 30.2 °F 100% 29.68 in 10.0 mi NNW 10.4 mph - N/A   Overcast
2:49 AM 30.2 °F 21.3 °F 30.2 °F 100% 29.69 in 10.0 mi NNW 10.4 mph - N/A   Overcast
3:08 AM 32.0 °F 23.0 °F 30.2 °F 93% 29.68 in 10.0 mi NNW 11.5 mph - N/A   Overcast
3:28 AM 32.0 °F 22.1 °F 30.2 °F 93% 29.67 in 10.0 mi North 13.8 mph - N/A   Overcast
3:49 AM 30.2 °F 20.8 °F 30.2 °F 100% 29.68 in 7.0 mi North 11.5 mph - N/A   Overcast
4:09 AM 30.2 °F 21.3 °F 30.2 °F 100% 29.68 in 10.0 mi North 10.4 mph - N/A   Overcast
4:29 AM 30.2 °F 23.4 °F 30.2 °F 100% 29.70 in 10.0 mi North 6.9 mph - N/A Snow Light Snow
4:49 AM 30.2 °F 21.9 °F 30.2 °F 100% 29.70 in 5.0 mi North 9.2 mph - N/A Snow Light Snow
5:09 AM 30.2 °F 20.8 °F 30.2 °F 100% 29.71 in 3.0 mi North 11.5 mph - N/A Snow Light Snow
5:29 AM 30.2 °F 20.2 °F 30.2 °F 100% 29.71 in 1.8 mi NNE 12.7 mph 17.3 mph N/A Snow Light Snow
5:46 AM 30.2 °F 19.3 °F 30.2 °F 100% 29.71 in 1.5 mi NNE 15.0 mph - N/A Snow Light Snow
6:08 AM 30.2 °F 18.5 °F 30.2 °F 100% 29.72 in 1.0 mi NNE 17.3 mph 20.7 mph N/A Snow Snow
6:28 AM 30.2 °F 19.8 °F 30.2 °F 100% 29.73 in 1.5 mi NNE 13.8 mph - N/A Snow Light Snow
6:47 AM 30.2 °F 18.1 °F 28.4 °F 93% 29.74 in 0.5 mi North 18.4 mph - N/A Snow Snow
6:49 AM 30.2 °F 18.9 °F 30.2 °F 100% 29.73 in 0.8 mi NNE 16.1 mph - N/A Snow Snow
7:09 AM 30.2 °F 18.1 °F 30.2 °F 100% 29.74 in - NNE 18.4 mph - N/A   Overcast
7:24 AM 30.2 °F 18.1 °F 30.2 °F 100% 29.75 in - NNE 18.4 mph - N/A   Overcast
7:49 AM 30.2 °F 18.5 °F 30.2 °F 100% 29.76 in - North 17.3 mph - N/A   Overcast
7:50 AM 30.2 °F 19.8 °F 28.4 °F 93% 29.76 in 0.5 mi North 13.8 mph - N/A Snow Snow
8:08 AM 30.2 °F 18.1 °F 30.2 °F 100% 29.76 in - North 18.4 mph - N/A   Overcast
8:28 AM 30.2 °F 18.5 °F 30.2 °F 100% 29.77 in - North 17.3 mph - N/A   Overcast
8:44 AM 30.2 °F 20.2 °F 30.2 °F 100% 29.78 in - North 12.7 mph - N/A   Overcast
9:05 AM 30.2 °F 20.2 °F 30.2 °F 100% 29.79 in - North 12.7 mph - N/A   Overcast
9:28 AM 32.0 °F 22.5 °F 30.2 °F 93% 29.80 in - North 12.7 mph - N/A   Overcast
9:50 AM 30.2 °F 20.2 °F 28.4 °F 93% 29.81 in 0.5 mi North 12.7 mph - N/A Snow Snow
10:09 AM 30.2 °F 20.2 °F 30.2 °F 100% 29.81 in - North 12.7 mph - N/A   Overcast
10:29 AM 32.0 °F 22.5 °F 30.2 °F 93% 29.83 in - North 12.7 mph - N/A   Overcast
10:47 AM 30.2 °F 16.2 °F 30.2 °F 100% 29.83 in - NNE 25.3 mph 33.4 mph N/A   Overcast
10:50 AM 28.4 °F 13.0 °F 26.6 °F 93% 29.84 in 0.5 mi North 28.8 mph - N/A Snow Snow
11:09 AM 30.2 °F 15.2 °F 28.4 °F 93% 29.84 in - NNE 29.9 mph 36.8 mph N/A   Overcast
11:29 AM 28.4 °F 13.5 °F 28.4 °F 100% 29.85 in - North 26.5 mph 31.1 mph N/A   Overcast
11:49 AM 28.4 °F 12.7 °F 26.6 °F 93% 29.86 in - North 29.9 mph 33.4 mph N/A   Overcast
11:55 AM 28.4 °F 13.8 °F 26.6 °F 93% 29.87 in 0.5 mi North 25.3 mph - N/A Snow Snow
12:04 PM 28.4 °F 13.0 °F 26.6 °F 93% 29.86 in - North 28.8 mph 33.4 mph N/A   Overcast
12:26 PM 28.4 °F 14.4 °F 26.6 °F 93% 29.87 in - North 23.0 mph 31.1 mph N/A   Overcast
12:49 PM 28.4 °F 15.4 °F 26.6 °F 93% 29.87 in - North 19.6 mph - N/A   Overcast
12:50 PM 28.4 °F 14.1 °F 26.6 °F 93% 29.87 in 0.5 mi North 24.2 mph - N/A Snow Snow
1:03 PM 28.4 °F 14.1 °F 26.6 °F 93% 29.87 in - North 24.2 mph 27.6 mph N/A   Overcast
1:55 PM 28.4 °F 15.1 °F 26.6 °F 93% 29.89 in 1.5 mi North 20.7 mph - N/A Snow Snow
2:50 PM 28.4 °F 13.5 °F 26.6 °F 93% 29.90 in 0.5 mi NNW 26.5 mph 31.1 mph N/A Snow Snow
4:47 PM 26.6 °F 13.8 °F 26.6 °F 100% 29.97 in 1.0 mi NNW 17.3 mph 24.2 mph N/A Snow Light Snow
5:50 PM 26.6 °F 14.3 °F 26.6 °F 100% 30.00 in 1.0 mi North 16.1 mph - N/A Snow Light Snow
6:50 PM 26.6 °F 14.7 °F 24.8 °F 93% 30.03 in 2.0 mi North 15.0 mph - N/A Snow Light Snow
7:49 PM 26.6 °F 13.8 °F 24.8 °F 93% 30.05 in 2.0 mi North 17.3 mph - N/A Snow Light Snow
8:49 PM 26.6 °F 15.7 °F 24.8 °F 93% 30.06 in 2.0 mi North 12.7 mph - N/A Snow Light Snow
9:09 PM 26.6 °F 15.2 °F 24.8 °F 93% 30.06 in 2.5 mi North 13.8 mph - N/A Snow Light Snow
9:29 PM 26.6 °F 15.7 °F 24.8 °F 93% 30.06 in 4.0 mi NNE 12.7 mph - N/A Snow Light Snow
9:49 PM 24.8 °F 14.6 °F 23.0 °F 93% 30.06 in 10.0 mi NNE 10.4 mph - N/A   Overcast
10:09 PM 23.0 °F 12.4 °F 23.0 °F 100% 30.06 in 10.0 mi NNE 10.4 mph - N/A   Overcast
10:25 PM 23.0 °F 13.1 °F 21.2 °F 93% 30.05 in 7.0 mi North 9.2 mph - N/A   Mostly Cloudy
10:49 PM 19.4 °F 7.9 °F 17.6 °F 93% 30.05 in 0.8 mi NNW 10.4 mph - N/A   Scattered Clouds
11:09 PM 19.4 °F 9.5 °F 19.4 °F 100% 30.06 in 5.0 mi WNW 8.1 mph - N/A   Mostly Cloudy
11:29 PM 19.4 °F 9.5 °F 19.4 °F 100% 30.04 in 7.0 mi WNW 8.1 mph - N/A   Scattered Clouds
11:49 PM 17.6 °F 6.4 °F 15.8 °F 93% 30.04 in 10.0 mi WNW 9.2 mph - N/A   Clear